Actual water levels and discharges of Vltava river

Vraňany

Date and time (UTC) H (cm) Q (m3/s)
21. 11. 2019 10:00 1 46
21. 11. 2019 09:00 1 46
21. 11. 2019 08:00 1 46
21. 11. 2019 07:00 1 46
21. 11. 2019 06:00 5 49
21. 11. 2019 05:00 10 53
21. 11. 2019 04:00 20 62
21. 11. 2019 03:00 8 51
21. 11. 2019 02:00 2 47
21. 11. 2019 01:00 9 52
21. 11. 2019 00:00 9 52
20. 11. 2019 23:00 15 57
20. 11. 2019 22:00 16 58

H - vodni stav, Q - discharge

Praha-Chuchle

Date and time (UTC) H (cm) Q (m3/s)
21. 11. 2019 10:00 45 51
21. 11. 2019 09:00 45 51
21. 11. 2019 08:00 45 51
21. 11. 2019 07:00 45 51
21. 11. 2019 06:00 45 51
21. 11. 2019 05:00 45 51
21. 11. 2019 04:00 46 54
21. 11. 2019 03:00 46 54
21. 11. 2019 02:00 46 54
21. 11. 2019 01:00 46 54
21. 11. 2019 00:00 46 54
20. 11. 2019 23:00 46 54
20. 11. 2019 22:00 46 54

H - vodni stav, Q - discharge
more information

VD Vrané nad Vltavou

Date and time (UTC) H (m n. m.) Q (m3/s)
21. 11. 2019 10:20 199 40
21. 11. 2019 10:00 199 40
21. 11. 2019 09:00 199 40
21. 11. 2019 08:00 199 40
21. 11. 2019 07:00 200 40
21. 11. 2019 06:00 200 40
21. 11. 2019 05:00 200 40
21. 11. 2019 04:00 200 40
21. 11. 2019 03:00 200 40
21. 11. 2019 02:00 200 40
21. 11. 2019 01:00 200 40
21. 11. 2019 00:00 200 40
20. 11. 2019 23:00 200 40
20. 11. 2019 22:00 200 40

H - water level, Q - outflow

VD Štěchovice

Date and time (UTC) H (m n. m.) Q (m3/s)
21. 11. 2019 10:20 218 43
21. 11. 2019 10:00 218 67
21. 11. 2019 09:00 218 5
21. 11. 2019 08:00 218 0
21. 11. 2019 07:00 218 0
21. 11. 2019 06:00 218 0
21. 11. 2019 05:00 218 0
21. 11. 2019 04:00 218 0
21. 11. 2019 03:00 218 0
21. 11. 2019 02:00 218 0
21. 11. 2019 01:00 218 0
21. 11. 2019 00:00 218 0
20. 11. 2019 23:00 219 13
20. 11. 2019 22:00 219 23

H - water level, Q - outflow

VD Slapy

Date and time (UTC) H (m n. m.) Q (m3/s)
21. 11. 2019 10:20 268 17
21. 11. 2019 10:00 268 17
21. 11. 2019 09:00 268 4
21. 11. 2019 08:00 268 0
21. 11. 2019 07:00 268 0
21. 11. 2019 06:00 268 0
21. 11. 2019 05:00 268 0
21. 11. 2019 04:00 268 0
21. 11. 2019 03:00 268 0
21. 11. 2019 02:00 268 0
21. 11. 2019 01:00 268 0
21. 11. 2019 00:00 268 0
20. 11. 2019 23:00 268 0
20. 11. 2019 22:00 268 0

H - water level, Q - outflow

VD Kamýk

Date and time (UTC) H (m n. m.) Q (m3/s)
21. 11. 2019 10:20 283 -
21. 11. 2019 10:00 283 -
21. 11. 2019 09:00 283 -
21. 11. 2019 08:00 283 -
21. 11. 2019 07:00 283 -
21. 11. 2019 06:00 283 -
21. 11. 2019 05:00 283 -
21. 11. 2019 04:00 283 -
21. 11. 2019 03:00 283 -
21. 11. 2019 02:00 283 -
21. 11. 2019 01:00 283 -
21. 11. 2019 00:00 283 -
20. 11. 2019 23:00 283 -
20. 11. 2019 22:00 283 -

H - water level, Q - outflow

VD Orlík

Date and time (UTC) H (m n. m.) Q (m3/s)
21. 11. 2019 10:20 337 0
21. 11. 2019 10:00 337 0
21. 11. 2019 09:00 337 0
21. 11. 2019 08:00 337 0
21. 11. 2019 07:00 337 0
21. 11. 2019 06:00 337 0
21. 11. 2019 05:00 337 0
21. 11. 2019 04:00 337 0
21. 11. 2019 03:00 337 0
21. 11. 2019 02:00 337 0
21. 11. 2019 01:00 337 0
21. 11. 2019 00:00 337 0
20. 11. 2019 23:00 337 0
20. 11. 2019 22:00 337 0

H - water level, Q - outflow

VD Kořensko

Date and time (UTC) H (m n. m.) Q (m3/s)
21. 11. 2019 10:20 353 66
21. 11. 2019 10:00 353 66
21. 11. 2019 09:00 353 67
21. 11. 2019 08:00 353 9
21. 11. 2019 07:00 353 20
21. 11. 2019 06:00 353 20
21. 11. 2019 05:00 353 20
21. 11. 2019 04:00 353 20
21. 11. 2019 03:00 353 20
21. 11. 2019 02:00 353 20
21. 11. 2019 01:00 353 20
21. 11. 2019 00:00 353 20
20. 11. 2019 23:00 353 21
20. 11. 2019 22:00 353 33

H - water level, Q - outflow

VD Hněvkovice I - přehrada

Date and time (UTC) H (m n. m.) Q (m3/s)
- - -

H - water level, Q - outflow

České Budějovice

Date and time (UTC) H (cm) Q (m3/s)
21. 11. 2019 10:00 106 11
21. 11. 2019 09:00 101 9
21. 11. 2019 08:00 101 10
21. 11. 2019 07:00 102 10
21. 11. 2019 06:00 101 11
21. 11. 2019 05:00 102 11
21. 11. 2019 04:00 101 11
21. 11. 2019 03:00 101 11
21. 11. 2019 02:00 102 10
21. 11. 2019 01:00 101 11
21. 11. 2019 00:00 102 11
20. 11. 2019 23:00 102 10
20. 11. 2019 22:00 101 10

H - vodni stav, Q - discharge
more information
Source data
Labe Basin Vltava Basin ČHMÚ